Погода в Пуланколе

Россия / Республика Хакасия     53°23′13″N   90°36′17″E
темп.,
°C
ветер,
м/с
пор.,
м/с
влажн.,
%
обл.,
%
осадки,
мм/ч
давл.,
гПа
погр.,
м
22 октября, пт
пт2201:00+4ююз115193 0.0 101810
04:00+3ююз225565 0.0 101810
07:00+3ююз115368 0.0 101810
10:00+7ю12415 0.0 101885
13:00+11юв223019 0.0 1016297
16:00+11вюв223286 0.0 1016199
19:00+7з1142100 0.0 101810
22:00+6зюз3370100 0.0 102176
23 октября, сб
сб2301:00+4зюз61068100 0.3 1026676
04:00+3зюз61165100 0.1 10291063
07:00+1юз6116710 0.1 1031464
10:00+3юз6115992 0.0 10301113
13:00+5юз5843100 0.0 10271294
16:00+7юз612332 0.0 10251698
19:00+3ююз22505 0.0 102516
22:00+1ююз335811 0.0 102542
24 октября, вс
вс2401:00+5юз71444100 0.0 1023884
04:00+4юз91973100 0.0 10221129
07:00+3юз815709 0.0 1023840
10:00+5зюз9166422 0.0 10231144
13:00+7зюз11186193 0.0 10221075
16:00+5зюз91680100 0.0 10241015
19:00+4юз61385100 0.1 10261006
22:00+4юз51187100 0.1 1027782
25 октября, пн
пн2501:00+4ююз4882100 0.1 1027662
04:00+5ююз3677100 0.0 1026203
07:00+4ююз3481100 0.0 102695
10:00+6ююз2473100 0.0 1025203
13:00+9ююз475966 0.0 1023672
16:00+10ююз475791 0.0 1021709
19:00+7ююз3470100 0.0 102152
22:00+7юз3372100 0.0 102133
26 октября, вт
вт2601:00+6юз327867 0.0 102027
04:00+5юз227797 0.0 102027
07:00+4зюз227982 0.0 102113
10:00+6зюз016744 0.0 102084
13:00+10вюв225385 0.0 1017435
16:00+10юв225095 0.0 1015369
19:00+6ю116237 0.0 101510
22:00+5ююз226225 0.0 101310